Home   Weather   Zabrze   Past weeks

Flag for Poland Past Weather in Zabrze, Poland — Yesterday and Last 2 Weeks

Now
32 °F

Clear.


Feels Like: 20 °F
Forecast: 29 / 36 °F
Wind: 18 mph from Southwest

Location: Katowice Airport

Current Time: Dec 7, 2016 at 7:35:03 pm

Latest Report: Dec 7, 2016 at 7:00 pm


Visibility: 6 mi

Pressure: 30.48 "Hg

Humidity: 75%

Dew Point: 25 °F

Location of ZabrzeLocation

Past Weather in Zabrze — Graph

°F

Zabrze Temperature Yesterday

Maximum temperature yesterday: 32 °F (at 3:30 pm)
Minimum temperature yesterday: 25 °F (at 4:00 am)
Average temperature yesterday: 29 °F

High & Low Weather Summary for the Past Weeks

 TemperatureHumidityPressure
High61 °F (Nov 23, 12:30 pm)100% (Nov 24, 9:00 pm)30.63 "Hg (Nov 24, 9:00 pm)
Low18 °F (Dec 5, 1:30 am)41% (Dec 5, 2:00 pm)29.45 "Hg (Dec 2, 3:30 am)
Average34 °F87%30.15 "Hg
* Reported Nov 22 6:00 pm — Dec 7 6:30 pm, Zabrze, Weather by CustomWeather, © 2016

Note: Actual official high and low records may vary slightly from our data, if they occured in-between our weather recording intervals... More about our weather records

Advertising

Zabrze Weather History for the Previous 24 Hours

Scroll right to see more
 ConditionsComfort  
Time TempWeatherWind HumidityBarometerVisibility
6:30 pm
Wed, Dec 7
32 °FClear.16 mph75%30.48 "Hg5 mi
6:00 pm32 °FClear.14 mph75%30.51 "Hg6 mi
5:30 pm32 °FClear.10 mph75%30.51 "Hg4 mi
5:00 pm32 °FClear.9 mph75%30.51 "Hg4 mi
4:30 pm32 °FClear.8 mph75%30.51 "Hg4 mi
4:00 pm32 °FClear.7 mph75%30.54 "Hg5 mi
3:30 pm32 °FClear.8 mph75%30.54 "Hg6 mi
3:00 pm32 °FSunny.9 mph75%30.51 "Hg10 mi
2:30 pm34 °FSunny.8 mph70%30.54 "Hg10 mi
2:00 pm34 °FSunny.8 mph70%30.54 "Hg10 mi
1:00 pm34 °FSunny.12 mph70%30.57 "Hg10 mi
12:30 pm34 °FSunny.10 mph70%30.57 "Hg10 mi
12:00 pm34 °FPassing clouds.9 mph75%30.60 "HgN/A
11:30 am32 °FScattered clouds.8 mph80%30.60 "HgN/A
11:00 am32 °FPassing clouds.7 mph80%30.60 "HgN/A
10:30 am32 °FPartly sunny.6 mph80%30.60 "HgN/A
10:00 am32 °FBroken clouds.6 mph80%30.63 "HgN/A
9:30 am30 °FPartly sunny.5 mph80%30.60 "HgN/A
9:00 am30 °FOvercast.3 mph93%30.60 "Hg4 mi
8:30 am30 °FMostly cloudy.6 mph93%30.60 "Hg5 mi
8:00 am30 °FBroken clouds.6 mph93%30.60 "Hg4 mi
7:30 am30 °FIce fog.5 mph93%30.60 "Hg3 mi
7:00 am30 °FMostly cloudy.5 mph93%30.60 "Hg4 mi
6:30 am30 °FMostly cloudy.3 mph93%30.60 "Hg4 mi
6:00 am30 °FOvercast.2 mph86%30.57 "HgN/A
5:30 am30 °FMostly cloudy.2 mph93%30.57 "Hg5 mi
5:00 am30 °FOvercast.2 mph93%30.57 "HgN/A
4:30 am30 °FPartly cloudy.3 mph93%30.57 "Hg5 mi
4:00 am30 °FMostly cloudy.3 mph100%30.54 "Hg4 mi
3:30 am30 °FIce fog.2 mph100%30.54 "Hg2 mi
3:00 am30 °FIce fog.5 mph100%30.54 "Hg2 mi
2:30 am30 °FIce fog.5 mph100%30.54 "Hg2 mi
2:00 am32 °FIce fog.6 mph93%30.51 "Hg1 mi
1:00 am32 °FChilly.7 mph93%30.51 "Hg1 mi
12:30 am32 °FChilly.6 mph93%30.51 "Hg1 mi
12:00 am32 °FIce fog.7 mph93%30.51 "Hg1 mi
11:30 pm
Tue, Dec 6
32 °FIce fog.6 mph93%30.51 "Hg2 mi
11:00 pm30 °FLight snow. Ice fog.5 mph100%30.48 "Hg2 mi
10:00 pm30 °FIce fog.6 mph100%30.48 "Hg3 mi
9:30 pm28 °FIce fog.2 mph100%30.48 "Hg2 mi
9:00 pm27 °FIce fog.6 mph100%30.45 "Hg2 mi
8:30 pm28 °FIce fog.6 mph93%30.45 "Hg3 mi
8:00 pm30 °FPassing clouds.5 mph100%30.42 "Hg6 mi
7:00 pm32 °FLight freezing rain. Mostly cloudy.7 mph93%30.42 "Hg4 mi
Weather by CustomWeather, © 2016

See weather overviewHow to use our weather pages